[Iaude] MPEC M87: 2013 RN30 [a=14.05,e=0.42,i=16.6,H=12.9]

mpec at marsden.cfa.harvard.edu mpec at marsden.cfa.harvard.edu
Tue Jun 23 11:09:37 EDT 2020


M.P.E.C. 2020-M87                                 Issued 2020 June 23, 14:39 UT

     The Minor Planet Electronic Circulars contain information on unusual
         minor planets and routine data on comets.  They are published
    on behalf of Division F of the International Astronomical Union by the
          Minor Planet Center, Smithsonian Astrophysical Observatory,
                          Cambridge, MA 02138, U.S.A.

             Prepared using the Tamkin Foundation Computer Network

                              MPC at CFA.HARVARD.EDU
            URL https://www.minorplanetcenter.net/    ISSN 1523-6714

                                   2013 RN30                                    


                           Revision to MPEC 2013-R63                            

Additional Observations:
     K13R30N &C2013 09 30.12053223 18 59.33 -00 48 38.9                VEM087W84
     K13R30N &C2013 09 30.12355323 18 59.28 -00 48 39.4                VEM087W84
     K13R30N &C2013 10 12.08493123 16 15.56 -01 20 32.7                VEM087W84
     K13R30N &C2013 10 12.08780123 16 15.52 -01 20 32.9                VEM087W84
     K13R30N &C2013 10 13.04820623 16 03.98 -01 22 58.7                VEM087W84
     K13R30N &C2013 10 13.07572923 16 03.64 -01 23 02.8                VEM087W84
     K13R30N  C2014 08 27.53110 00 49 52.143+03 09 12.01         22.1 wLEM087F51
     K13R30N  C2014 08 27.54473 00 49 51.991+03 09 10.36         22.1 wLEM087F51
     K13R30N  C2014 08 27.57196 00 49 51.730+03 09 06.81         21.8 wLEM087F51
     K13R30N !C2014 10 18.19356 00 37 05.96 +00 50 07.8          22.3 g EM087W84
     K13R30N !C2014 10 18.20580 00 37 05.76 +00 50 05.9                 EM087W84
     K13R30N !C2014 10 18.21802 00 37 05.56 +00 50 04.0                 EM087W84
     K13R30N !C2014 10 18.23026 00 37 05.37 +00 50 02.1                 EM087W84

Observer details:
F51 Pan-STARRS 1, Haleakala.  Observers N. Primak, A. Schultz, T. Goggia, M.
    Willman.  Measurers B. Bolin, K. Chambers, S. Chastel, L. Denneau, H.
    Flewelling, M. Huber, E. Magnier, E. Schunova, R. Wainscoat, C. Waters.
    1.8-m Ritchey-Chretien + CCD.
W84 Cerro Tololo-DECam.  Observer .  Measurers S. Deen, F. Valdes.  4.0-m
    reflector + CCD, 4.0-m CTIO reflector.

Orbital elements:
2013 RN30
Epoch 2020 May 31.0 TT = JDT 2459000.5                  Pike
M  39.02916              (2000.0)            P               Q
n   0.01871146     Peri.  187.25253     +0.98704690     -0.16010661
a  14.0517658      Node   182.04644     +0.15777925     +0.98028551
e   0.4229053      Incl.   16.61818     +0.02905395     +0.11578514
P  52.67           H   12.9           G   0.15           U   2
Residuals in seconds of arc
130828 F51  0.1-  0.0     130903 F51  0.1-  0.2+    130907 H21  0.3+  0.2+
130828 F51  0.0   0.1+    130903 F51  0.1-  0.1+    130930 W84  0.1+  0.1-
130828 F51  0.2+  0.1+    130903 F51  0.0   0.4-    130930 W84  0.0   0.1-
130828 F51  0.2+  0.0     130903 F51  0.0   0.1+    131012 W84  0.1+  0.1-
130829 F51  0.1-  0.1-    130903 F51  0.0   0.2-    131012 W84  0.0   0.1+
130829 F51  0.0   0.1+    130903 F51  0.1+  0.0     131013 W84  0.1+  0.2-
130829 F51  0.2-  0.1+    130903 F51  0.2+  0.1-    131013 W84  0.1+  0.2-
130829 F51  0.4-  0.3+    130904 H21  0.3+  0.2+    140827 F51  0.1+  0.1-
130831 F51  0.0   0.2-    130904 H21  0.6+  0.1+    140827 F51  0.1-  0.1+
130831 F51  0.1+  0.1-    130904 H21  0.8+  0.2-    140827 F51  0.1+  0.2+
130831 F51  0.0   0.0     130906 291  0.0   0.5+    141018 W84  0.0   0.1-
130831 F51  0.2-  0.0     130906 291  0.1-  0.2+    141018 W84  0.0   0.1-
130831 F51  0.0   0.1-    130907 H21  0.3-  0.1-    141018 W84  0.1-  0.1-
130903 F51  0.0   0.0     130907 H21  0.2-  0.4+    141018 W84  0.0   0.0

Ephemeris:
2013 RN30                a,e,i = 14.05, 0.42, 17                 q = 8.1092
Date    TT    R. A. (2000) Decl.     Delta      r    Elong.  Phase     V
2020 05 24    06 03 56.1 +08 02 16  11.9164 11.0670    31.6     2.8    23.8
...
2020 06 08    06 10 02.0 +08 08 10  12.0377 11.0989    21.4     1.9    23.8
...
2020 06 16    06 13 23.4 +08 09 12  12.0815 11.1160    17.4     1.6    23.7
...
2020 06 22    06 15 55.7 +08 09 00  12.1045 11.1288    15.6     1.4    23.7
2020 06 23    06 16 21.2 +08 08 54  12.1075 11.1309    15.4     1.4    23.7
2020 06 24    06 16 46.6 +08 08 45  12.1102 11.1331    15.3     1.4    23.7
...
2020 06 30    06 19 18.9 +08 07 27  12.1217 11.1459    15.6     1.4    23.7
...
2020 07 08    06 22 40.2 +08 04 28  12.1238 11.1629    18.3     1.6    23.8
...
2020 07 23    06 28 45.9 +07 55 06  12.0875 11.1950    27.4     2.4    23.8

M. P. C. Staff               (C) Copyright 2020 MPC           M.P.E.C. 2020-M87




More information about the Iaude mailing list